Voltar ao catálogo

FENGYUN 1C DEB

AtivoSSO
NORAD 30718·DEBRIS·🇨🇳 China

Lançado May 10, 1999 de Taiyuan Satellite Launch Center

Loading…

Próximas Passagens (próximas 24 horas)

TLE

AtualizadoSource: Space-Track

Época: Sep 14, 2026, 12:26 UTC

1 30718U 99025ASC 26257.51844961  .00001852  00000-0  78302-3 0  9993
2 30718  98.8818 346.3766 0055470  81.7334 279.0131 14.25945339  6683

Acompanhe FENGYUN 1C DEB em tempo real com AllMySat

Download on the App Store